This demonstration page uses our WeatherBlox Daily Observations layout. Learn more.

Left ArrowRight Arrow

Hourly Observations for September 5, 2018

Temp ( °F °C ) Dew Point ( °F °C ) Humidity (%) Winds ( mph kmh ) Pressure ( in mb ) Visibility ( mi km ) Precip ( " mm )
12:53 am 00:53 Mostly Cloudy with Light Rain 67 19.4 65 18.3 93 93 ENE 7 11 30.01 1016 9 14 0.04 1.02
1:49 am 01:49 Cloudy with Light Rain 66 19 66 19 100 100 Calm 30.00 1016 9 14 0.06 1.52
1:53 am 01:53 Cloudy with Light Rain 67 19.4 66 18.9 97 97 NW 3 6 30.03 1017 10 16 0.07 1.78
2:03 am 02:03 Cloudy with Light Rain 66 19 66 19 100 100 WNW 5 7 30.06 1018 10 16 0.00 0.00
2:53 am 02:53 Cloudy 67 19.4 67 19.4 100 100 Calm 30.03 1017 10 16 0.00 0.03
3:53 am 03:53 Cloudy 67 19.4 67 19.4 100 100 NW 5 7 30.04 1017 10 16 0.00 0.00
4:07 am 04:07 Cloudy 68 20 66 19 94 94 NW 6 9 30.03 1017 10 16 0.00 0.00
4:19 am 04:19 Cloudy 68 20 67 19.4 96 96 NW 7 11 30.03 1017 10 16 0.00 0.00
4:53 am 04:53 Cloudy 68 20 67 19.4 96 96 N 6 9 30.03 1017 10 16 0.00 0.00
5:53 am 05:53 Partly Cloudy 67 19.4 66 18.9 97 97 N 6 9 30.05 1018 10 16 0.00 0.00
6:03 am 06:03 Mostly Cloudy 66 19 66 19 100 100 N 6 9 30.06 1018 10 16 0.00 0.00
6:53 am 06:53 Cloudy 68 20 67 19.4 96 96 NNE 6 9 30.07 1018 10 16 0.00 0.03
7:03 am 07:03 Cloudy 68 20 67 19.4 96 96 NNE 6 9 30.03 1017 10 16 0.00 0.00
7:53 am 07:53 Cloudy with Light Rain 68 20 66 18.9 93 93 NNE 10 17 30.09 1019 10 16 0.00 0.03
8:53 am 08:53 Mostly Cloudy with Light Rain 66 18.9 64 17.8 93 93 NNE 15 24 30.11 1020 10 16 0.01 0.25
9:53 am 09:53 Cloudy 67 19.4 63 17.2 87 87 NNE 13 20 30.15 1021 10 16 0.00 0.03
10:53 am 10:53 Cloudy 68 20 64 17.8 87 87 N 10 17 30.17 1022 10 16 0.00 0.00
11:16 am 11:16 Cloudy 68 20 64 17.8 87 87 N 10 17 30.15 1021 10 16 0.00 0.00
11:53 am 11:53 Cloudy 67 19.4 65 18.3 93 93 N 14 22 30.19 1022 10 16 0.00 0.00
12:35 pm 12:35 Cloudy 69 20.6 65 18.3 87 87 N 12 19 30.12 1020 10 16 0.00 0.00
12:53 pm 12:53 Cloudy 69 20.6 65 18.3 87 87 N 15 24 30.19 1022 10 16 0.00 0.00
1:26 pm 13:26 Cloudy 70 21.1 65 18.3 84 84 N 15 24 30.12 1020 10 16 0.00 0.00
1:53 pm 13:53 Cloudy 71 21.7 65 18.3 81 81 NNE 18 30 30.18 1022 10 16 0.00 0.00
2:53 pm 14:53 Mostly Cloudy 71 21.7 65 18.3 81 81 NNE 15 24 30.18 1022 10 16 0.00 0.00
3:05 pm 15:05 Mostly Cloudy 72 22 64 18 78 78 NNE 15 24 30.12 1020 10 16 0.00 0.00
3:13 pm 15:13 Mostly Cloudy 72 22.2 65 18.3 79 79 N 15 24 30.12 1020 10 16 0.00 0.00
3:25 pm 15:25 Cloudy 72 22.2 65 18.3 79 79 NNE 16 26 30.12 1020 10 16 0.00 0.00
3:53 pm 15:53 Cloudy 71 21.7 65 18.3 81 81 N 17 28 30.18 1022 10 16 0.00 0.00
4:53 pm 16:53 Mostly Cloudy 71 21.7 64 17.8 79 79 N 17 28 30.19 1022 10 16 0.00 0.00
5:49 pm 17:49 Partly Cloudy 72 22 64 18 78 78 NNE 13 20 30.15 1021 10 16 0.00 0.00
5:53 pm 17:53 Partly Cloudy 71 21.7 65 18.3 81 81 NNE 14 22 30.19 1022 10 16 0.00 0.00
6:38 pm 18:38 Mostly Cloudy 70 21 64 18 83 83 NNE 15 24 30.15 1021 10 16 0.00 0.00
6:53 pm 18:53 Cloudy 69 20.6 64 17.8 84 84 NE 14 22 30.21 1023 10 16 0.00 0.00
7:53 pm 19:53 Mostly Cloudy 67 19.4 63 17.2 87 87 NNE 13 20 30.24 1024 10 16 0.00 0.00
8:53 pm 20:53 Cloudy 66 18.9 63 17.2 90 90 NNE 10 17 30.27 1025 10 16 0.00 0.00
9:46 pm 21:46 Cloudy 66 19 63 17 88 88 NNE 10 17 30.24 1024 10 16 0.00 0.00
9:53 pm 21:53 Cloudy 65 18.3 63 17.2 93 93 NNE 8 13 30.29 1026 10 16 0.00 0.00
10:14 pm 22:14 Cloudy 65 18.3 63 17.2 93 93 NNE 9 15 30.27 1025 10 16 0.00 0.00
10:53 pm 22:53 Cloudy 65 18.3 63 17.2 93 93 NNE 7 11 30.28 1026 10 16 0.00 0.00
11:21 pm 23:21 Cloudy 65 18.3 63 17.2 93 93 NNE 12 19 30.27 1025 10 16 0.00 0.00
11:53 pm 23:53 Cloudy 65 18.3 63 17.2 93 93 NNE 10 17 30.29 1026 10 16 0.00 0.00

Powered by AerisWeather